Content
SEND FEEDBACK

Daily
Averages
Monthly
Summary
United States of America

MARNE, IOWA


Home > North America > United States > Iowa
Elevation: 1219 feet     Latitude: 41 25N     Longitude: 095 00W

WEATHER
 
SELECT A DAY
Number of Records: 402,981;   Date Range: 4/23/95 - 9/29/14
 
SHARE

PRINT THIS DATA

[ ← Previous Day ]
WEATHER ALMANAC - JANUARY 31, 2013
[ Next Day → ]
[ °C ]   °F
Weather ElementAverageHighLow
Temperature5.1 °F12.2 °F (12:35 am)-2.2 °F (11:35 pm)
Dewpoint-4.6 °F5 °F (12:35 am)-11.2 °F (10:15 pm)
Humidity64.5 %79 % (3:15 am)56 % (3:35 pm)
Barometer30.16 in30.40 in (11:55 pm)29.90 in (12:35 am)
Wind Speed15.6 mph27.6 mph (1:55 pm)
Wind Gust32.2 mph (3:15 pm)
Weather ElementAverage
Visibility8.9 mi
Wind DirectionNW (313 °)

Weather ElementTotal
Precipitation---
Heating Degree Days60 (Base 65)
Averaged from 70 records on January 31, 2013
WEATHER CONDITIONS BREAKOUT
WIND DIRECTION BREAKOUT
WEATHER BY HOUR - JANUARY 31, 2013
[ °C ]   °F
Local TimeTemperatureDewpointHumidityBarometerVisibilityWind DirectionWind SpeedGust SpeedPrecipitationEventsConditions
12:35 AM12.2 °F5.0 °F73 %29.90 in10.0 miNW (310°)13.8 mphClear
12:55 AM12.2 °F5.0 °F73 %29.90 in10.0 miNW (310°)12.7 mphClear
1:15 AM12.2 °F5.0 °F73 %29.91 in10.0 miNW (310°)13.8 mphClear
1:35 AM10.4 °F3.2 °F73 %29.91 in10.0 miWNW (300°)11.5 mph17.3 mphClear
1:55 AM10.4 °F3.2 °F73 %29.92 in10.0 miWNW (300°)8.1 mphScattered Clouds
2:15 AM10.4 °F3.2 °F73 %29.92 in10.0 miNW (310°)12.7 mphScattered Clouds
2:35 AM10.4 °F3.2 °F73 %29.92 in10.0 miNW (310°)15.0 mphPartly Cloudy
2:55 AM10.4 °F3.2 °F73 %29.92 in10.0 miNW (310°)13.8 mphClear
3:15 AM8.6 °F3.2 °F79 %29.93 in10.0 miWNW (300°)15.0 mphClear
3:35 AM8.6 °F1.4 °F73 %29.93 in10.0 miNW (310°)17.3 mph24.2 mphPartly Cloudy
3:55 AM8.6 °F-0.4 °F67 %29.94 in10.0 miNW (320°)11.5 mph19.6 mphClear
4:15 AM6.8 °F-0.4 °F72 %29.95 in10.0 miNW (310°)10.4 mphScattered Clouds
4:35 AM6.8 °F-0.4 °F72 %29.95 in10.0 miNW (310°)10.4 mphOvercast
4:55 AM6.8 °F-2.2 °F67 %29.95 in10.0 miNW (320°)17.3 mph23.0 mphOvercast
5:15 AM6.8 °F-2.2 °F67 %29.96 in10.0 miNW (310°)19.6 mphOvercast
5:35 AM6.8 °F-2.2 °F67 %29.97 in10.0 miNW (310°)16.1 mph24.2 mphOvercast
5:55 AM6.8 °F-4.0 °F61 %29.99 in10.0 miNW (310°)12.7 mph20.7 mphOvercast
6:15 AM6.8 °F-4.0 °F61 %29.99 in10.0 miNW (310°)13.8 mph20.7 mphOvercast
6:35 AM5.0 °F-4.0 °F66 %30.00 in10.0 miNW (320°)13.8 mph24.2 mphOvercast
6:55 AM5.0 °F-4.0 °F66 %30.01 in10.0 miNW (310°)13.8 mph20.7 mphOvercast
7:15 AM5.0 °F-4.0 °F66 %30.02 in10.0 miNW (320°)13.8 mphOvercast
7:35 AM5.0 °F-4.0 °F66 %30.02 in10.0 miNW (320°)11.5 mphOvercast
7:55 AM5.0 °F-5.8 °F61 %30.04 in10.0 miNW (310°)16.1 mphOvercast
8:15 AM5.0 °F-4.0 °F66 %30.05 in10.0 miNW (310°)13.8 mphOvercast
8:35 AM5.0 °F-4.0 °F66 %30.06 in10.0 miNW (320°)15.0 mph24.2 mphOvercast
8:55 AM5.0 °F-5.8 °F61 %30.07 in10.0 miNW (320°)15.0 mphScattered Clouds
9:15 AM5.0 °F-4.0 °F66 %30.08 in10.0 miNW (320°)15.0 mph25.3 mphMostly Cloudy
9:35 AM5.0 °F-4.0 °F66 %30.10 in10.0 miNW (310°)20.7 mphOvercast
9:55 AM5.0 °F-4.0 °F66 %30.12 in10.0 miNW (310°)20.7 mphOvercast
10:15 AM5.0 °F-2.2 °F72 %30.14 in5.0 miNW (310°)20.7 mphRainLight Rain
10:35 AM6.8 °F-2.2 °F67 %30.16 in2.5 miNW (320°)19.6 mph26.5 mphSnowLight Snow
10:55 AM5.0 °F-2.2 °F72 %30.18 in1.5 miNW (310°)24.2 mphSnowLight Snow
11:15 AM5.0 °F-4.0 °F66 %30.19 in4.0 miNNW (330°)19.6 mph25.3 mphSnowLight Snow
11:35 AM5.0 °F-2.2 °F72 %30.19 in1.5 miNW (320°)18.4 mphSnowLight Snow
11:55 AM5.0 °F-4.0 °F66 %30.19 in4.0 miNW (310°)21.9 mphSnowLight Snow
12:15 PM5.0 °F-4.0 °F66 %30.20 in4.0 miNW (310°)19.6 mph27.6 mphSnowLight Snow
12:35 PM5.0 °F-5.8 °F61 %30.20 in6.0 miNW (310°)24.2 mph31.1 mphHaze
12:55 PM5.0 °F-5.8 °F61 %30.21 in6.0 miNW (320°)24.2 mphHaze
1:15 PM5.0 °F-5.8 °F61 %30.21 in8.0 miNW (320°)24.2 mphScattered Clouds
1:35 PM5.0 °F-4.0 °F66 %30.22 in7.0 miWNW (300°)23.0 mph29.9 mphMostly Cloudy
1:55 PM5.0 °F-5.8 °F61 %30.22 in3.0 miNW (320°)27.6 mphHaze
2:15 PM5.0 °F-4.0 °F66 %30.23 in5.0 miNW (310°)23.0 mph31.1 mphHaze
2:35 PM5.0 °F-5.8 °F61 %30.24 in6.0 miNW (310°)24.2 mph29.9 mphHaze
2:55 PM5.0 °F-5.8 °F61 %30.24 in9.0 miNW (310°)25.3 mphMostly Cloudy
3:15 PM5.0 °F-5.8 °F61 %30.25 inNW (320°)25.3 mph32.2 mphMostly Cloudy
3:35 PM6.8 °F-5.8 °F56 %30.26 in10.0 miNW (310°)19.6 mph27.6 mphOvercast
3:55 PM5.0 °F-5.8 °F61 %30.26 in10.0 miNW (310°)21.9 mphOvercast
4:15 PM5.0 °F-5.8 °F61 %30.27 in10.0 miNW (320°)19.6 mph26.5 mphMostly Cloudy
4:35 PM5.0 °F-7.6 °F56 %30.28 in10.0 miNW (320°)24.2 mphPartly Cloudy
4:55 PM5.0 °F-5.8 °F61 %30.29 in10.0 miNW (310°)20.7 mph27.6 mphScattered Clouds
5:15 PM5.0 °F-7.6 °F56 %30.29 in10.0 miNW (310°)19.6 mphPartly Cloudy
5:35 PM5.0 °F-7.6 °F56 %30.30 in10.0 miNW (320°)11.5 mphScattered Clouds
5:55 PM3.2 °F-7.6 °F61 %30.31 in10.0 miNW (320°)13.8 mphScattered Clouds
6:15 PM3.2 °F-9.4 °F56 %30.31 in10.0 miNW (320°)13.8 mphScattered Clouds
6:35 PM3.2 °F-9.4 °F56 %30.32 in10.0 miNW (310°)12.7 mph19.6 mphPartly Cloudy
6:55 PM3.2 °F-7.6 °F61 %30.33 in10.0 miWNW (300°)11.5 mph18.4 mphPartly Cloudy
7:15 PM3.2 °F-9.4 °F56 %30.33 in10.0 miNW (310°)13.8 mphPartly Cloudy
7:35 PM1.4 °F-9.4 °F61 %30.34 in10.0 miWNW (300°)11.5 mphClear
7:55 PM1.4 °F-9.4 °F61 %30.35 in10.0 miNW (310°)13.8 mphClear
8:15 PM1.4 °F-9.4 °F61 %30.36 in10.0 miNW (310°)11.5 mph18.4 mphClear
8:35 PM1.4 °F-9.4 °F61 %30.36 in10.0 miNW (320°)9.2 mphClear
8:55 PM1.4 °F-9.4 °F61 %30.36 in10.0 miNW (320°)6.9 mphClear
9:15 PM1.4 °F-9.4 °F61 %30.36 in10.0 miNW (320°)6.9 mphClear
9:35 PM1.4 °F-9.4 °F61 %30.37 in10.0 miNW (320°)10.4 mphClear
10:15 PM-0.4 °F-11.2 °F60 %30.37 in10.0 miNNW (330°)8.1 mphClear
10:35 PM-0.4 °F-11.2 °F60 %30.37 in10.0 miNNW (340°)8.1 mphClear
10:55 PM-0.4 °F-11.2 °F60 %30.38 in10.0 miNW (310°)8.1 mphClear
11:15 PM-0.4 °F-11.2 °F60 %30.38 in10.0 miNW (310°)8.1 mphClear
11:35 PM-2.2 °F-11.2 °F66 %30.39 in10.0 miWNW (300°)5.8 mphClear
11:55 PM-0.4 °F-11.2 °F60 %30.40 in10.0 miWNW (290°)3.5 mphClear
Hourly data recorded from KAIO, located miles away from Marne, Iowa







STORIES FROM OUR PARTNERS